Tracking 26922 objects as of 31-Jan-2023
HD Live streaming from Space Station
objects crossing your sky now

CZ-6A DEB

Track CZ-6A DEB now!
10-day predictions


NORAD ID: 54273
Int'l Code: 2022-151Q
Perigee: 836.0 km
Apogee: 879.1 km
Inclination: 98.8 °
Period: 101.9 minutes
Semi major axis: 7228 km
RCS: Unknown
Launch date: November 11, 2022
Source: People's Republic of China (PRC)
Launch site: Taiyaun Space Center, China (TSC)

Note: This is SATELLITE DEBRIS
Your satellite tracking list
Your tracking list is empty




NASA's NSSDC Master Catalog

Two Line Element Set (TLE):
1 54273U 22151Q   23031.47605068  .00002009  00000-0  11037-2 0  9992
2 54273  98.8073  40.1330 0029782 198.6207 161.3878 14.12617741 10795
Source of the keplerian elements: AFSPC